1486414800.98,19867,11.06,72806.3,-7.37,-23.79,-21.97,0,*50
1486414802.22,19868,11.06,72802.5,-7.37,-23.79,-21.87,0,*5E
1486414803.46,19869,11.06,72802.0,-7.37,-23.75,-21.87,0,*53
1486414804.73,19870,11.06,72802.8,-7.39,-23.79,-21.87,0,*59
1486414805.98,19871,11.06,72804.3,-7.37,-23.75,-21.87,0,*5A
1486414807.25,19872,11.06,72806.0,-7.39,-23.75,-21.87,0,*57
1486414808.52,19873,11.06,72802.0,-7.39,-23.75,-21.87,0,*56
1486414809.76,19874,11.06,72800.8,-7.37,-23.79,-21.87,0,*53
1486414811.02,19875,11.06,72800.8,-7.39,-23.79,-21.97,0,*5D
1486414812.28,19876,11.06,72804.5,-7.37,-23.65,-21.97,0,*5D
1486414813.56,19877,11.06,72802.3,-7.39,-23.65,-21.97,0,*52
1486414814.8,19878,11.06,72800.0,-7.37,-23.75,-21.97,0,*52
1486414816.07,19879,11.06,72802.5,-7.39,-23.75,-21.87,0,*5C
1486414817.32,19880,11.06,72802.3,-7.37,-23.75,-21.87,0,*54
1486414818.59,19881,11.06,72800.3,-7.39,-23.75,-21.87,0,*5B
1486414819.83,19882,11.06,72800.5,-7.37,-23.75,-21.87,0,*56
1486414821.09,19883,11.06,72800.5,-7.37,-23.65,-21.83,0,*52
1486414822.38,19884,11.06,72804.3,-7.39,-23.65,-21.97,0,*5E
1486414823.63,19885,11.06,72800.0,-7.37,-23.65,-21.97,0,*51
1486414824.87,19886,11.06,72800.8,-7.37,-23.59,-21.87,0,*5C
1486414826.14,19887,11.06,72800.5,-7.39,-23.59,-21.87,0,*53
1486414827.42,19888,11.06,72802.3,-7.39,-23.65,-21.97,0,*52
1486414828.69,19889,11.06,72802.0,-7.39,-23.59,-21.97,0,*5C
1486414829.93,19890,11.06,72802.5,-7.37,-23.59,-21.87,0,*5B
1486414831.19,19891,11.06,72800.0,-7.39,-23.59,-21.97,0,*55
1486414832.46,19892,11.06,72804.8,-7.39,-23.59,-21.87,0,*57
1486414833.72,19893,11.06,72802.8,-7.39,-23.59,-21.87,0,*56
1486414834.96,19894,11.06,72802.5,-7.37,-23.59,-21.87,0,*5F
1486414836.23,19895,11.06,72800.8,-7.39,-23.59,-21.87,0,*50
1486414837.52,19896,11.06,72800.8,-7.39,-23.49,-21.97,0,*53
1486414838.78,19897,11.06,72802.5,-7.39,-23.59,-21.97,0,*53
1486414840.02,19898,11.06,72802.5,-7.37,-23.59,-21.87,0,*53
1486414841.3,19899,11.06,72798.3,-7.39,-23.49,-21.97,0,*5C
1486414842.57,19900,11.06,72798.8,-7.39,-23.59,-21.87,0,*5D
1486414843.81,19901,11.06,72802.3,-7.37,-23.59,-21.97,0,*53
1486414845.05,19902,11.06,72802.0,-7.37,-23.59,-21.87,0,*51
1486414846.34,19903,11.06,72802.0,-7.39,-23.49,-21.87,0,*5F
1486414847.6,19904,11.06,72800.8,-7.37,-23.49,-21.87,0,*56
1486414848.87,19905,11.06,72802.0,-7.39,-23.59,-21.87,0,*58
1486414850.16,19906,11.06,72804.3,-7.39,-23.49,-21.97,0,*5B
1486414851.44,19907,11.06,72802.0,-7.39,-23.49,-21.97,0,*5A
1486414852.7,19908,11.06,72804.8,-7.39,-23.49,-22.03,0,*5B
1486414853.97,19909,11.06,72798.5,-7.39,-23.59,-21.83,0,*50
1486414855.23,19910,11.06,72800.8,-7.39,-23.59,-21.97,0,*5D
1486414856.52,19911,11.06,72798.5,-7.39,-23.49,-21.87,0,*5C
1486414857.8,19912,11.06,72800.0,-7.39,-23.49,-21.97,0,*5E
1486414859.07,19913,11.06,72806.0,-7.39,-23.49,-22.03,0,*51
1486414860.35,19914,11.06,72798.8,-7.39,-23.49,-21.97,0,*58
1486414861.63,19915,11.06,72800.0,-7.39,-23.49,-21.97,0,*59
1486414862.92,19916,11.06,72796.5,-7.39,-23.49,-21.97,0,*5A
1486414864.2,19917,11.06,72802.8,-7.39,-23.49,-21.97,0,*5B
1486414865.49,19918,11.06,72800.5,-7.39,-23.49,-21.97,0,*54
1486414866.75,19919,11.06,72802.5,-7.39,-23.33,-22.03,0,*56
1486414867.99,19920,11.06,72800.5,-7.37,-23.43,-21.97,0,*5B
1486414869.27,19921,11.06,72802.5,-7.39,-23.33,-21.97,0,*53
1486414870.56,19922,11.06,72802.8,-7.39,-23.33,-21.83,0,*55
1486414871.85,19923,11.06,72802.8,-7.39,-23.33,-21.87,0,*50
1486414873.11,19924,11.06,72798.5,-7.37,-23.33,-21.97,0,*58
1486414874.4,19925,11.06,72800.0,-7.39,-23.33,-21.87,0,*56
1486414875.68,19926,11.06,72800.8,-7.39,-23.33,-21.97,0,*54
1486414876.97,19927,11.06,72802.0,-7.39,-23.29,-21.83,0,*5B
1486414878.26,19928,11.06,72802.8,-7.39,-23.29,-21.87,0,*50
1486414879.52,19929,11.06,72800.5,-7.39,-23.33,-22.03,0,*55
1486414880.78,19930,11.06,72800.3,-7.39,-23.33,-22.03,0,*5D
1486414882.07,19931,11.06,72802.0,-7.39,-23.33,-21.97,0,*52
1486414883.31,19932,11.06,72798.0,-7.35,-23.43,-22.03,0,*54
1486414884.54,19933,11.06,72800.5,-7.37,-23.33,-22.03,0,*50
1486414885.83,19934,11.06,72802.0,-7.39,-23.33,-21.97,0,*57
1486414887.09,19935,11.06,72802.5,-7.39,-23.33,-22.03,0,*58
1486414888.37,19936,11.06,72802.5,-7.39,-23.33,-21.97,0,*55
1486414889.66,19937,11.06,72800.3,-7.39,-23.29,-21.97,0,*5F
1486414890.9,19938,11.06,72802.0,-7.39,-23.43,-22.03,0,*52
1486414892.16,19939,11.06,72802.3,-7.39,-23.33,-22.03,0,*54
1486414893.37,19940,11.06,72802.0,-7.37,-23.43,-22.03,0,*53
1486414894.64,19941,11.06,72806.3,-7.39,-23.33,-22.03,0,*5B
1486414895.9,19942,11.06,72800.8,-7.39,-23.43,-21.97,0,*51
1486414897.18,19943,11.06,72800.5,-7.39,-23.33,-21.97,0,*57
1486414898.47,19944,11.06,72800.5,-7.39,-23.33,-21.97,0,*50
1486414899.68,19945,11.06,72800.8,-7.37,-23.43,-22.11,0,*55
1486414900.92,19946,11.06,72802.3,-7.39,-23.43,-22.11,0,*58
1486414902.16,19947,11.06,72798.5,-7.39,-23.43,-22.11,0,*59
1486414903.46,19948,11.06,72802.0,-7.39,-23.49,-22.17,0,*5A
1486414904.69,19949,11.06,72802.8,-7.37,-23.33,-22.11,0,*5E
1486414905.95,19950,11.06,72802.3,-7.43,-23.49,-22.07,0,*5F
1486414907.19,19951,11.06,72802.5,-7.39,-23.43,-22.11,0,*5E
1486414908.45,19952,11.06,72802.3,-7.39,-23.33,-22.11,0,*5A
1486414909.72,19953,11.06,72800.5,-7.43,-23.49,-22.07,0,*5C
1486414910.98,19954,11.06,72802.5,-7.39,-23.33,-22.11,0,*5C
1486414912.22,19955,11.06,72802.5,-7.39,-23.43,-22.03,0,*59
1486414913.48,19956,11.06,72802.8,-7.39,-23.33,-22.03,0,*5D
1486414914.69,19957,11.06,72802.8,-7.37,-23.43,-22.03,0,*55
1486414915.93,19958,11.06,72802.0,-7.39,-23.43,-22.11,0,*57
1486414917.23,19959,11.06,72800.5,-7.43,-23.49,-22.17,0,*57
1486414918.52,19960,11.06,72802.8,-7.43,-23.49,-22.17,0,*5D
1486414919.75,19961,11.06,72804.3,-7.43,-23.39,-22.07,0,*5A
1486414920.98,19962,11.06,72802.5,-7.43,-23.39,-22.03,0,*5D
1486414922.22,19963,11.06,72800.8,-7.43,-23.39,-22.03,0,*5C
1486414923.48,19964,11.06,72802.0,-7.39,-23.29,-22.03,0,*57
1486414924.77,19965,11.06,72798.8,-7.43,-23.33,-22.17,0,*55
1486414926.03,19966,11.06,72800.5,-7.43,-23.33,-22.07,0,*57
1486414927.32,19967,11.06,72802.0,-7.43,-23.49,-22.21,0,*5F
1486414928.6,19968,11.06,72806.0,-7.43,-23.49,-22.21,0,*50
1486414929.89,19969,11.06,72802.5,-7.43,-23.49,-22.17,0,*54
1486414931.13,19970,11.06,72800.5,-7.45,-23.39,-22.17,0,*5D
1486414932.33,19971,11.06,72802.0,-7.45,-23.39,-22.07,0,*5D
1486414933.55,19972,11.06,72806.0,-7.45,-23.43,-22.11,0,*54
1486414934.75,19973,11.06,72806.5,-7.45,-23.39,-22.07,0,*5F
1486414935.95,19974,11.06,72804.5,-7.45,-23.39,-22.11,0,*5F
1486414937.16,19975,11.06,72804.8,-7.45,-23.39,-22.11,0,*5E
1486414938.42,19976,11.06,72800.0,-7.43,-23.33,-22.07,0,*56
1486414939.68,19977,11.06,72802.3,-7.45,-23.33,-22.21,0,*55
1486414940.91,19978,11.06,72798.8,-7.45,-23.39,-22.21,0,*50
1486414942.16,19979,11.06,72804.5,-7.43,-23.39,-22.21,0,*57
1486414943.39,19980,11.06,72804.3,-7.43,-23.39,-22.07,0,*55
1486414944.65,19981,11.06,72800.5,-7.43,-23.29,-22.07,0,*55
1486414945.94,19982,11.06,72802.8,-7.43,-23.33,-22.17,0,*5C
1486414947.17,19983,11.06,72802.8,-7.45,-23.39,-22.21,0,*54
1486414948.43,19984,11.06,72800.8,-7.43,-23.33,-22.07,0,*5B
1486414949.67,19985,11.06,72800.5,-7.45,-23.29,-22.11,0,*50
1486414950.9,19986,11.06,72800.5,-7.45,-23.33,-22.11,0,*58
1486414952.11,19987,11.06,72804.8,-7.45,-23.39,-22.11,0,*53
1486414953.33,19988,11.06,72802.5,-7.45,-23.39,-22.21,0,*5F
1486414954.59,19989,11.06,72802.8,-7.43,-23.39,-22.21,0,*58
1486414955.85,19990,11.06,72800.8,-7.43,-23.39,-22.17,0,*55
1486414957.06,19991,11.06,72800.3,-7.45,-23.39,-22.27,0,*51
1486414958.28,19992,11.06,72802.8,-7.45,-23.39,-22.21,0,*54
1486414959.52,19993,11.06,72800.8,-7.45,-23.33,-22.27,0,*59
1486414960.78,19994,11.06,72802.5,-7.45,-23.33,-22.21,0,*58
1486414962.03,19995,11.06,72802.5,-7.45,-23.33,-22.21,0,*59
1486414963.29,19996,11.06,72800.8,-7.45,-23.33,-22.21,0,*5A
1486414964.52,19997,11.06,72802.8,-7.45,-23.39,-22.21,0,*51
1486414965.76,19998,11.06,72802.8,-7.45,-23.33,-22.27,0,*52
1486414966.98,19999,11.06,72802.3,-7.45,-23.39,-22.21,0,*5F
1486414968.27,20000,11.06,72800.0,-7.47,-23.33,-22.21,0,*54
1486414969.51,20001,11.06,72802.5,-7.45,-23.33,-22.27,0,*51
1486414970.74,20002,11.06,72800.0,-7.45,-23.33,-22.27,0,*52
1486414971.98,20003,11.06,72798.5,-7.45,-23.33,-22.27,0,*53
1486414973.23,20004,11.06,72804.0,-7.45,-23.23,-22.21,0,*53
1486414974.47,20005,11.06,72804.5,-7.45,-23.33,-22.27,0,*55
1486414975.67,20006,11.06,72804.5,-7.45,-23.39,-22.27,0,*5C
1486414976.93,20007,11.06,72800.8,-7.45,-23.19,-22.21,0,*59
1486414978.2,20008,11.06,72802.8,-7.47,-23.19,-22.07,0,*50
1486414979.46,20009,11.06,72804.0,-7.45,-23.19,-22.21,0,*57
1486414980.72,20010,11.06,72802.3,-7.45,-23.23,-22.21,0,*56
1486414981.95,20011,11.06,72802.0,-7.45,-23.23,-22.27,0,*51
1486414983.19,20012,11.06,72800.5,-7.45,-23.19,-22.27,0,*5B
1486414984.45,20013,11.06,72802.3,-7.47,-23.23,-22.27,0,*51
1486414985.74,20014,11.06,72806.0,-7.47,-23.19,-22.21,0,*59
1486414987.0,20015,11.06,72800.8,-7.47,-23.23,-22.41,0,*57
1486414988.23,20016,11.06,72800.8,-7.45,-23.33,-22.41,0,*57
1486414989.48,20017,11.06,72804.3,-7.47,-23.23,-22.41,0,*55
1486414990.75,20018,11.06,72804.3,-7.47,-23.23,-22.27,0,*5A
1486414992.01,20019,11.06,72800.5,-7.47,-23.19,-22.41,0,*52
1486414993.24,20020,11.06,72800.3,-7.45,-23.23,-22.41,0,*53
1486414994.5,20021,11.06,72802.5,-7.47,-23.19,-22.27,0,*59
1486414995.76,20022,11.06,72802.8,-7.47,-23.19,-22.41,0,*5A
1486414997.02,20023,11.06,72802.3,-7.47,-23.19,-22.41,0,*5B
1486414998.29,20024,11.06,72802.5,-7.49,-23.29,-22.47,0,*57
1486414999.55,20025,11.06,72800.0,-7.47,-23.19,-22.41,0,*5D
1486415000.81,20026,11.06,72802.3,-7.47,-23.19,-22.41,0,*5E
1486415002.11,20027,11.06,72804.3,-7.47,-23.19,-22.47,0,*59
1486415003.37,20028,11.06,72802.0,-7.47,-23.19,-22.41,0,*50
1486415004.67,20029,11.06,72806.5,-7.47,-23.23,-22.47,0,*5E
1486415005.93,20030,11.06,72806.0,-7.47,-23.19,-22.41,0,*59
1486415007.19,20031,11.06,72804.0,-7.47,-23.19,-22.41,0,*58
1486415008.43,20032,11.06,72806.0,-7.49,-23.19,-22.53,0,*56
1486415009.73,20033,11.06,72800.3,-7.47,-23.19,-22.47,0,*5C
1486415010.97,20034,11.06,72800.8,-7.49,-23.29,-22.53,0,*53
1486415012.21,20035,11.06,72800.8,-7.49,-23.29,-22.53,0,*52
1486415013.5,20036,11.06,72804.3,-7.47,-23.23,-22.47,0,*50
1486415014.8,20037,11.06,72802.0,-7.47,-23.19,-22.47,0,*58
1486415016.09,20038,11.06,72804.5,-7.47,-23.23,-22.47,0,*5E
1486415017.39,20039,11.06,72800.8,-7.47,-23.23,-22.47,0,*5F
1486415018.69,20040,11.06,72800.5,-7.47,-23.19,-22.47,0,*58
1486415019.92,20041,11.06,72804.3,-7.49,-23.29,-22.53,0,*51
1486415021.22,20042,11.06,72804.0,-7.47,-23.19,-22.47,0,*5A
1486415022.52,20043,11.06,72802.5,-7.47,-23.19,-22.47,0,*5B
1486415023.82,20044,11.06,72800.5,-7.47,-23.19,-22.47,0,*5C
1486415025.11,20045,11.06,72806.0,-7.47,-23.19,-22.47,0,*5D
1486415026.38,20046,11.06,72800.5,-7.47,-23.19,-22.57,0,*5F
1486415027.62,20047,11.06,72802.5,-7.49,-23.23,-22.63,0,*5E
1486415028.89,20048,11.06,72800.8,-7.47,-23.19,-22.57,0,*51
1486415030.16,20049,11.06,72804.3,-7.47,-23.19,-22.57,0,*50
1486415031.39,20050,11.06,72800.8,-7.49,-23.23,-22.67,0,*5C
1486415032.63,20051,11.06,72800.5,-7.49,-23.23,-22.63,0,*59
1486415033.87,20052,11.06,72800.8,-7.49,-23.23,-22.63,0,*5A
1486415035.11,20053,11.06,72802.5,-7.49,-23.23,-22.63,0,*5B
1486415036.36,20054,11.06,72802.8,-7.47,-23.09,-22.63,0,*5A
1486415037.62,20055,11.06,72804.0,-7.47,-23.23,-22.57,0,*54
1486415038.89,20056,11.06,72802.8,-7.47,-23.19,-22.63,0,*59
1486415040.13,20057,11.06,72804.0,-7.49,-23.23,-22.67,0,*5B
1486415041.4,20058,11.06,72798.8,-7.47,-23.19,-22.63,0,*57
1486415042.66,20059,11.06,72802.5,-7.47,-23.19,-22.57,0,*51
1486415043.9,20060,11.06,72802.5,-7.49,-23.23,-22.67,0,*5F
1486415045.14,20061,11.06,72800.0,-7.49,-23.23,-22.63,0,*5A
1486415046.4,20062,11.06,72800.5,-7.47,-23.29,-22.63,0,*5D
1486415047.64,20063,11.06,72802.0,-7.49,-23.23,-22.67,0,*5C
1486415048.88,20064,11.06,72800.0,-7.49,-23.29,-22.67,0,*51
1486415050.15,20065,11.06,72798.8,-7.47,-23.19,-22.63,0,*59
1486415051.41,20066,11.06,72800.5,-7.49,-23.23,-22.77,0,*58
1486415052.65,20067,11.06,72802.5,-7.49,-23.23,-22.67,0,*58
1486415053.88,20068,11.06,72800.5,-7.49,-23.23,-22.67,0,*57
1486415055.17,20069,11.06,72806.3,-7.47,-23.19,-22.73,0,*54
1486415056.46,20070,11.06,72800.3,-7.47,-23.19,-22.73,0,*5C
1486415057.73,20071,11.06,72804.3,-7.47,-23.19,-22.57,0,*5B
1486415059.0,20072,11.06,72800.0,-7.47,-23.19,-22.63,0,*5F
1486415060.21,20073,11.06,72802.8,-7.49,-23.13,-22.67,0,*5E
1486415061.5,20074,11.06,72802.3,-7.47,-23.19,-22.73,0,*58
1486415062.79,20075,11.06,72800.8,-7.47,-23.19,-22.73,0,*59
1486415064.05,20076,11.06,72798.0,-7.49,-23.19,-22.77,0,*50
1486415065.29,20077,11.06,72802.3,-7.49,-23.23,-22.83,0,*53
1486415066.53,20078,11.06,72800.0,-7.49,-23.29,-22.83,0,*56
1486415067.82,20079,11.06,72806.8,-7.47,-23.19,-22.77,0,*51
1486415069.06,20080,11.06,72802.0,-7.49,-23.23,-22.83,0,*5B
1486415070.32,20081,11.06,72802.8,-7.49,-23.29,-22.77,0,*5B
1486415071.56,20082,11.06,72802.0,-7.49,-23.23,-22.83,0,*59
1486415072.8,20083,11.06,72800.5,-7.49,-23.23,-22.83,0,*58
1486415074.06,20084,11.06,72802.8,-7.49,-23.23,-22.77,0,*54
1486415075.32,20085,11.06,72804.3,-7.49,-23.23,-22.77,0,*55
1486415076.56,20086,11.06,72800.3,-7.49,-23.29,-22.83,0,*57
1486415077.8,20087,11.06,72800.5,-7.49,-23.29,-22.93,0,*57
1486415079.1,20088,11.06,72802.3,-7.47,-23.19,-22.77,0,*5F
1486415080.39,20089,11.06,72802.3,-7.47,-23.19,-22.77,0,*5E
1486415081.63,20090,11.06,72804.0,-7.49,-23.29,-22.93,0,*51
1486415082.87,20091,11.06,72802.5,-7.49,-23.29,-22.97,0,*54
1486415084.11,20092,11.06,72800.3,-7.49,-23.29,-22.97,0,*57
1486415085.35,20093,11.06,72804.0,-7.49,-23.29,-22.93,0,*52
1486415086.6,20094,11.06,72798.5,-7.49,-23.23,-22.93,0,*5F
1486415087.86,20095,11.06,72802.5,-7.47,-23.33,-22.87,0,*54
1486415089.12,20096,11.06,72802.3,-7.47,-23.33,-22.87,0,*57
1486415090.33,20097,11.06,72802.3,-7.49,-23.39,-22.93,0,*57
1486415091.58,20098,11.06,72800.8,-7.49,-23.29,-22.97,0,*5D
1486415092.81,20099,11.06,72800.5,-7.47,-23.39,-22.87,0,*52
1486415094.03,20100,11.06,72800.3,-7.49,-23.43,-22.97,0,*51
1486415095.25,20101,11.06,72802.5,-7.49,-23.43,-23.09,0,*56
1486415096.5,20102,11.06,72804.5,-7.49,-23.49,-23.09,0,*5F
1486415097.71,20103,11.06,72802.3,-7.49,-23.43,-23.13,0,*5F
1486415098.98,20104,11.06,72800.8,-7.47,-23.33,-22.97,0,*5C
1486415100.2,20105,11.06,72800.0,-7.49,-23.43,-23.13,0,*59
1486415101.44,20106,11.06,72798.8,-7.49,-23.49,-23.09,0,*5B
1486415102.71,20107,11.06,72802.0,-7.51,-23.49,-23.13,0,*58
1486415103.96,20108,11.06,72802.3,-7.51,-23.43,-23.13,0,*5D
1486415105.2,20109,11.06,72802.3,-7.51,-23.43,-23.09,0,*57
1486415106.44,20110,11.06,72800.0,-7.49,-23.49,-23.13,0,*57
1486415107.69,20111,11.06,72800.8,-7.49,-23.49,-23.09,0,*5D
1486415108.96,20112,11.06,72802.3,-7.49,-23.49,-23.23,0,*56
1486415110.17,20113,11.06,72800.8,-7.49,-23.59,-23.13,0,*55
1486415111.41,20114,11.06,72802.0,-7.49,-23.49,-23.09,0,*58
1486415112.63,20115,11.06,72802.5,-7.49,-23.59,-23.13,0,*53
1486415113.87,20116,11.06,72804.0,-7.49,-23.49,-23.09,0,*5A
1486415115.09,20117,11.06,72802.0,-7.49,-23.59,-23.13,0,*51
1486415116.31,20118,11.06,72800.5,-7.49,-23.59,-23.09,0,*55
1486415117.55,20119,11.06,72798.5,-7.49,-23.49,-23.09,0,*55
1486415118.82,20120,11.06,72802.5,-7.51,-23.59,-23.23,0,*5F
1486415120.09,20121,11.06,72802.0,-7.53,-23.65,-23.23,0,*53
1486415121.33,20122,11.06,72802.5,-7.53,-23.53,-23.13,0,*56
1486415122.59,20123,11.06,72802.0,-7.53,-23.65,-23.19,0,*58
1486415123.82,20124,11.06,72802.8,-7.53,-23.65,-23.13,0,*55
1486415125.07,20125,11.06,72800.3,-7.51,-23.75,-23.13,0,*57
1486415126.36,20126,11.06,72796.3,-7.51,-23.65,-23.23,0,*56
1486415127.63,20127,11.06,72802.5,-7.51,-23.65,-23.09,0,*5F
1486415128.9,20128,11.06,72800.5,-7.51,-23.65,-23.13,0,*5B
1486415130.16,20129,11.06,72798.5,-7.51,-23.65,-23.13,0,*5A
1486415131.4,20130,11.06,72798.5,-7.53,-23.69,-23.13,0,*5C
1486415132.64,20131,11.06,72800.8,-7.51,-23.59,-22.97,0,*51
1486415133.89,20132,11.06,72800.0,-7.51,-23.59,-23.09,0,*54
1486415135.15,20133,11.06,72800.8,-7.53,-23.65,-23.19,0,*59
1486415136.38,20134,11.06,72800.5,-7.53,-23.69,-23.13,0,*58
1486415137.64,20135,11.06,72800.5,-7.51,-23.65,-23.13,0,*57
1486415138.9,20136,11.06,72800.8,-7.53,-23.69,-23.19,0,*50
1486415140.13,20137,11.06,72800.0,-7.53,-23.69,-23.13,0,*5B
1486415141.36,20138,11.06,72800.3,-7.53,-23.69,-23.13,0,*54
1486415142.62,20139,11.06,72802.8,-7.53,-23.69,-23.19,0,*5F
1486415143.87,20140,11.06,72802.8,-7.51,-23.75,-23.09,0,*5F
1486415145.13,20141,11.06,72800.8,-7.53,-23.85,-23.19,0,*52
1486415146.39,20142,11.06,72800.3,-7.53,-23.85,-23.19,0,*51
1486415147.65,20143,11.06,72802.0,-7.53,-23.85,-23.19,0,*50
1486415148.9,20144,11.06,72802.8,-7.51,-23.79,-22.97,0,*51
1486415150.15,20145,11.06,72802.5,-7.51,-23.75,-22.97,0,*5C
1486415151.36,20146,11.06,72802.3,-7.53,-23.79,-23.13,0,*5C
1486415152.6,20147,11.0,72798.8,-7.53,-23.79,-23.03,0,*5C
1486415153.85,20148,11.06,72802.5,-7.51,-23.75,-22.97,0,*51
1486415155.1,20149,11.06,72800.5,-7.51,-23.79,-22.97,0,*5C
1486415156.34,20150,11.06,72796.5,-7.53,-23.85,-22.97,0,*55
1486415157.57,20151,11.06,72800.8,-7.53,-23.79,-23.03,0,*5B
1486415158.82,20152,11.06,72800.8,-7.51,-23.75,-22.97,0,*5A
1486415160.11,20153,11.06,72798.8,-7.55,-23.85,-23.03,0,*5C
1486415161.36,20154,11.06,72796.0,-7.55,-23.79,-22.97,0,*54
1486415162.64,20155,11.06,72798.8,-7.55,-23.85,-23.03,0,*5A
1486415163.87,20156,11.06,72798.5,-7.53,-23.69,-22.87,0,*50
1486415165.11,20157,11.06,72802.0,-7.53,-23.79,-23.03,0,*5D
1486415166.35,20158,11.06,72802.8,-7.53,-23.79,-23.03,0,*52
1486415167.57,20159,11.06,72798.5,-7.53,-23.79,-22.97,0,*5F
1486415168.81,20160,11.06,72802.5,-7.53,-23.85,-22.97,0,*56
1486415170.04,20161,11.06,72800.0,-7.53,-23.85,-23.13,0,*5A
1486415171.28,20162,11.06,72798.5,-7.53,-23.85,-22.97,0,*54
1486415172.52,20163,11.06,72798.8,-7.55,-23.79,-22.97,0,*50
1486415173.79,20164,11.06,72802.8,-7.55,-23.85,-22.97,0,*54
1486415175.05,20165,11.06,72798.5,-7.55,-23.95,-22.97,0,*54
1486415176.34,20166,11.06,72796.5,-7.55,-23.85,-23.03,0,*5A
1486415177.61,20167,11.06,72802.8,-7.57,-23.99,-23.09,0,*5E
1486415178.85,20168,11.06,72800.3,-7.55,-23.79,-22.97,0,*5B
1486415180.12,20169,11.06,72802.3,-7.55,-23.85,-22.97,0,*59
1486415181.41,20170,11.06,72802.0,-7.55,-23.85,-23.03,0,*5D
1486415182.64,20171,11.06,72798.8,-7.55,-23.79,-22.87,0,*52
1486415183.88,20172,11.06,72796.3,-7.57,-23.89,-22.93,0,*59
1486415185.12,20173,11.06,72798.0,-7.55,-23.79,-22.83,0,*54
1486415186.38,20174,11.06,72800.5,-7.57,-23.85,-22.87,0,*56
1486415187.62,20175,11.06,72798.5,-7.55,-23.79,-22.87,0,*56
1486415188.89,20176,11.06,72800.3,-7.55,-23.69,-22.73,0,*5F
1486415190.15,20177,11.06,72800.0,-7.57,-23.89,-22.77,0,*56
1486415191.39,20178,11.06,72802.3,-7.55,-23.79,-22.87,0,*5B
1486415192.63,20179,11.06,72798.8,-7.55,-23.79,-22.83,0,*5E
1486415193.89,20180,11.06,72800.8,-7.55,-23.85,-22.87,0,*5F
1486415195.13,20181,11.06,72802.0,-7.57,-23.89,-22.87,0,*50
1486415196.41,20182,11.0,72796.5,-7.55,-23.85,-22.73,0,*56
1486415197.67,20183,11.06,72800.5,-7.55,-23.79,-22.73,0,*54
1486415198.93,20184,11.06,72802.8,-7.57,-23.89,-22.77,0,*5A
1486415200.19,20185,11.06,72800.3,-7.57,-23.99,-22.87,0,*55
1486415201.42,20186,11.06,72798.0,-7.57,-23.89,-22.87,0,*57
1486415202.69,20187,11.06,72802.0,-7.55,-23.95,-22.83,0,*5D
1486415203.92,20188,11.06,72800.3,-7.57,-23.89,-22.87,0,*59
1486415205.18,20189,11.06,72798.0,-7.55,-23.95,-22.83,0,*53
1486415206.44,20190,11.0,72796.5,-7.55,-23.85,-22.83,0,*5A
1486415207.73,20191,11.06,72798.0,-7.57,-23.85,-22.77,0,*52
1486415209.01,20192,11.06,72798.8,-7.57,-23.85,-22.73,0,*55
1486415210.29,20193,11.06,72802.5,-7.57,-23.85,-22.73,0,*54
1486415211.55,20194,11.06,72800.0,-7.57,-23.75,-22.73,0,*5C
1486415212.83,20195,11.0,72798.5,-7.57,-23.85,-22.73,0,*52
1486415214.07,20196,11.06,72800.0,-7.55,-23.79,-22.67,0,*55
1486415215.33,20197,11.0,72796.8,-7.57,-23.89,-22.73,0,*5C
1486415216.61,20198,11.06,72800.0,-7.57,-23.85,-22.73,0,*5F
1486415217.87,20199,11.06,72800.0,-7.57,-23.75,-22.73,0,*51
1486415219.13,20200,11.0,72796.8,-7.57,-23.85,-22.63,0,*5C
1486415220.37,20201,11.0,72796.8,-7.57,-23.75,-22.63,0,*52
1486415221.63,20202,11.0,72798.8,-7.57,-23.85,-22.63,0,*5E
1486415222.87,20203,11.06,72798.8,-7.57,-23.75,-22.63,0,*50
1486415224.13,20204,11.06,72802.3,-7.57,-23.85,-22.63,0,*58
1486415225.39,20205,11.06,72796.5,-7.57,-23.85,-22.63,0,*59
1486415226.63,20206,11.0,72798.5,-7.57,-23.89,-22.63,0,*56
1486415227.87,20207,11.0,72796.5,-7.55,-23.79,-22.57,0,*5D
1486415229.11,20208,11.0,72798.5,-7.57,-23.75,-22.63,0,*5B
1486415230.37,20209,11.06,72798.0,-7.57,-23.85,-22.63,0,*55
1486415231.62,20210,11.06,72800.3,-7.57,-23.69,-22.57,0,*58
1486415232.84,20211,11.06,72798.3,-7.59,-23.59,-22.57,0,*54
1486415234.07,20212,11.06,72800.5,-7.61,-23.79,-22.63,0,*59
1486415235.34,20213,11.06,72800.0,-7.61,-23.75,-22.47,0,*52
1486415236.59,20214,11.06,72796.8,-7.57,-23.69,-22.37,0,*5A
1486415237.82,20215,11.0,72798.8,-7.57,-23.59,-22.41,0,*59
1486415239.06,20216,11.06,72800.8,-7.57,-23.69,-22.41,0,*59
1486415240.31,20217,11.0,72796.3,-7.57,-23.69,-22.41,0,*58
1486415241.54,20218,11.06,72798.3,-7.57,-23.59,-22.37,0,*55
1486415242.8,20219,11.06,72798.8,-7.57,-23.53,-22.37,0,*5E
1486415244.03,20220,11.06,72798.0,-7.57,-23.59,-22.37,0,*5E
1486415245.27,20221,11.06,72796.3,-7.57,-23.59,-22.27,0,*5E
1486415246.51,20222,11.06,72802.0,-7.59,-23.53,-22.27,0,*59
1486415247.74,20223,11.06,72798.8,-7.59,-23.53,-22.27,0,*58
1486415249.0,20224,11.0,72798.3,-7.57,-23.49,-22.27,0,*5A
1486415250.26,20225,11.06,72798.3,-7.57,-23.53,-22.27,0,*50
1486415251.5,20226,11.06,72798.3,-7.59,-23.49,-22.27,0,*56
1486415252.73,20227,11.06,72796.5,-7.59,-23.49,-22.37,0,*56
1486415253.99,20228,11.0,72798.3,-7.59,-23.49,-22.21,0,*5E
1486415255.24,20229,11.06,72798.3,-7.57,-23.39,-22.21,0,*56
1486415256.48,20230,11.06,72796.3,-7.59,-23.33,-22.27,0,*5C
1486415257.73,20231,11.06,72798.8,-7.57,-23.39,-22.21,0,*5F
1486415258.96,20232,11.0,72794.8,-7.57,-23.39,-22.27,0,*5A
1486415260.21,20233,11.06,72796.5,-7.57,-23.39,-22.21,0,*5D
1486415261.49,20234,11.06,72796.5,-7.57,-23.33,-22.21,0,*50
1486415262.77,20235,11.0,72798.0,-7.57,-23.33,-22.21,0,*51
1486415264.05,20236,11.06,72798.3,-7.57,-23.33,-22.21,0,*52
1486415265.33,20237,11.06,72796.5,-7.57,-23.49,-22.21,0,*5E
1486415266.56,20238,11.06,72800.3,-7.57,-23.39,-22.27,0,*50
1486415267.84,20239,11.06,72798.5,-7.57,-23.33,-22.21,0,*5D
1486415269.13,20240,11.0,72796.8,-7.55,-23.29,-22.17,0,*5F
1486415270.39,20241,11.06,72798.5,-7.57,-23.33,-22.37,0,*55
1486415271.65,20242,11.06,72796.0,-7.57,-23.33,-22.27,0,*57
1486415272.93,20243,11.0,72798.0,-7.57,-23.33,-22.21,0,*50
1486415274.21,20244,11.06,72796.5,-7.57,-23.33,-22.21,0,*57
1486415275.44,20245,11.06,72796.5,-7.59,-23.33,-22.27,0,*5E
1486415276.7,20246,11.0,72794.3,-7.57,-23.33,-22.27,0,*53
1486415277.96,20247,11.0,72798.8,-7.57,-23.33,-22.27,0,*52
1486415279.2,20248,11.0,72794.5,-7.59,-23.33,-22.27,0,*53
1486415280.43,20249,11.0,72792.8,-7.59,-23.33,-22.11,0,*57
1486415281.72,20250,11.0,72798.3,-7.55,-23.29,-22.17,0,*5E
1486415282.98,20251,11.0,72796.0,-7.57,-23.33,-22.11,0,*50
1486415284.26,20252,11.06,72798.3,-7.57,-23.33,-22.21,0,*50
1486415285.52,20253,11.06,72796.3,-7.57,-23.33,-22.27,0,*57
1486415286.81,20254,11.0,72798.3,-7.55,-23.29,-22.17,0,*5A
1486415288.09,20255,11.06,72796.3,-7.57,-23.33,-22.21,0,*57
1486415289.37,20256,11.06,72796.3,-7.57,-23.23,-22.21,0,*55
1486415290.65,20257,11.06,72798.3,-7.57,-23.23,-22.21,0,*54
1486415291.91,20258,11.0,72798.3,-7.57,-23.23,-22.27,0,*5D
1486415293.16,20259,11.06,72796.5,-7.57,-23.23,-22.27,0,*5C
1486415294.42,20260,11.0,72796.3,-7.57,-23.19,-22.37,0,*5E
1486415295.68,20261,11.06,72798.3,-7.57,-23.23,-22.27,0,*57
1486415296.96,20262,11.0,72792.3,-7.57,-23.19,-22.21,0,*5B
1486415298.24,20263,11.0,72798.3,-7.57,-23.19,-22.21,0,*5A
1486415299.53,20264,11.0,72794.5,-7.55,-23.19,-22.21,0,*5F
1486415300.79,20265,11.06,72798.5,-7.57,-23.19,-22.11,0,*5F
1486415302.05,20266,11.0,72794.0,-7.57,-23.23,-22.27,0,*50
1486415303.33,20267,11.06,72796.0,-7.57,-23.23,-22.21,0,*57